Regional Weather Roundup
Issued by NWS

Home | Current Version | Previous Version | Graphics & Text | Print | Product List | Glossary On
Versions: 1 2 3 4 5 6 7 8 9 10 11 12 13 14 15 16 17 18 19 20 21 22 23 24 25 26 27 28 29 30 31 32 33 34 35 36 37 38 39 40 41 42 43 44 45 46 47 48 49 50
000
ASUS43 KBIS 221610
RWRND

NORTH DAKOTA REGIONAL WEATHER ROUNDUP
NATIONAL WEATHER SERVICE BISMARCK ND
1100 AM CDT FRI AUG 22 2014

NOTE: "FAIR" INDICATES FEW OR NO CLOUDS BELOW 12,000 FEET WITH NO
SIGNIFICANT WEATHER AND/OR OBSTRUCTIONS TO VISIBILITY.


NDZ001>003-009>011-017-221700-
NORTHWEST NORTH DAKOTA

CITY           SKY/WX    TMP DP  RH WIND       PRES   REMARKS
WILLISTON      CLOUDY    65  55  70 E12       30.12R
MINOT          CLOUDY    60  59  96 N10       30.09R FOG
MINOT AFB      CLOUDY    60  60 100 NE10      30.09R
$$

NDZ018>021-031>035-040>046-221700-
SOUTHWEST NORTH DAKOTA

CITY           SKY/WX    TMP DP  RH WIND       PRES   REMARKS
BISMARCK       MOSUNNY   71  64  78 CALM      30.05S
DICKINSON      PTSUNNY   65  61  87 NE6       30.06S
GARRISON         N/A     65  61  87 NE10      30.07R
HETTINGER ARPT CLOUDY    66  59  78 N3        30.07F
$$

NDZ004>008-012>016-024-026-027-054-221700-
NORTHEAST NORTH DAKOTA

CITY           SKY/WX    TMP DP  RH WIND       PRES   REMARKS
GRAND FORKS    CLOUDY    67  64  90 N14       29.99R
GRND FRKS AFB  CLOUDY    67  66  99 N13       30.01R
DEVILS LAKE    CLOUDY    64  57  77 NE10      30.03R
$$

NDZ022-023-025-028>030-036>039-047>053-221700-
SOUTHEAST NORTH DAKOTA

CITY           SKY/WX    TMP DP  RH WIND       PRES   REMARKS
FARGO          CLOUDY    71  68  90 N3        29.98R
JAMESTOWN      CLOUDY    69  65  86 N7        30.02R
$$




USA.gov is the U.S. government's official web portal to all federal, state and local government web resources and services.